TimeEST,TemperatureF,Dew PointF,Humidity,Sea Level PressureIn,VisibilityMPH,Wind Direction,Wind SpeedMPH,Gust SpeedMPH,PrecipitationIn,Events,Conditions,WindDirDegrees,DateUTC
12:53 AM,48.9,44.1,83,30.24,10.0,Calm,Calm,-,N/A,,Clear,0,2012-12-04 05:53:00
1:53 AM,48.9,45.0,86,30.23,10.0,Calm,Calm,-,N/A,,Clear,0,2012-12-04 06:53:00
2:53 AM,48.0,44.1,86,30.24,10.0,Calm,Calm,-,N/A,,Mostly Cloudy,0,2012-12-04 07:53:00
3:53 AM,48.9,45.0,86,30.23,10.0,Calm,Calm,-,N/A,,Overcast,0,2012-12-04 08:53:00
4:53 AM,52.0,46.9,83,30.24,10.0,SW,3.5,-,N/A,,Overcast,220,2012-12-04 09:53:00
5:53 AM,54.0,48.0,80,30.24,10.0,SW,4.6,-,N/A,,Overcast,230,2012-12-04 10:53:00
6:53 AM,53.1,48.0,83,30.25,10.0,Calm,Calm,-,N/A,,Mostly Cloudy,0,2012-12-04 11:53:00
7:53 AM,53.1,48.0,83,30.27,10.0,South,3.5,-,N/A,,Overcast,190,2012-12-04 12:53:00
8:53 AM,57.0,48.9,74,30.28,10.0,Calm,Calm,-,N/A,,Overcast,0,2012-12-04 13:53:00
9:53 AM,62.1,48.9,62,30.28,10.0,Variable,5.8,-,N/A,,Overcast,0,2012-12-04 14:53:00
10:53 AM,64.0,50.0,60,30.28,10.0,Variable,4.6,-,N/A,,Overcast,0,2012-12-04 15:53:00
11:53 AM,66.0,50.0,56,30.25,10.0,West,4.6,-,N/A,,Overcast,270,2012-12-04 16:53:00
12:53 PM,64.9,50.0,58,30.23,10.0,West,4.6,-,N/A,,Overcast,260,2012-12-04 17:53:00
1:53 PM,68.0,51.1,55,30.20,10.0,WSW,5.8,-,N/A,,Overcast,250,2012-12-04 18:53:00
2:53 PM,69.1,50.0,51,30.17,10.0,Variable,5.8,-,N/A,,Overcast,0,2012-12-04 19:53:00
3:53 PM,68.0,48.0,49,30.17,10.0,Variable,4.6,16.1,0.00,Rain,Light Rain,0,2012-12-04 20:53:00
4:53 PM,66.9,50.0,54,30.17,9.0,SSW,11.5,18.4,0.00,Rain,Light Rain,210,2012-12-04 21:53:00
5:53 PM,66.0,51.1,59,30.18,10.0,Variable,3.5,-,0.01,,Overcast,0,2012-12-04 22:53:00
6:53 PM,64.9,51.1,61,30.19,10.0,Calm,Calm,-,N/A,,Overcast,0,2012-12-04 23:53:00
7:53 PM,62.1,53.1,72,30.19,10.0,Calm,Calm,-,N/A,,Overcast,0,2012-12-05 00:53:00
8:53 PM,63.0,53.1,70,30.19,10.0,Calm,Calm,-,N/A,,Overcast,0,2012-12-05 01:53:00
9:53 PM,64.0,51.1,63,30.17,10.0,SSW,5.8,-,N/A,,Overcast,210,2012-12-05 02:53:00
10:53 PM,64.0,53.1,67,30.16,10.0,West,4.6,-,N/A,,Overcast,260,2012-12-05 03:53:00
11:53 PM,62.1,54.0,75,30.16,10.0,Calm,Calm,-,N/A,,Overcast,0,2012-12-05 04:53:00